Location: ?????
(30.4569°N, 47.8921°E)
Time: 05:22:40
(UTC+00:00)

STARLINK-1037 - Pass Details

Date: 07 June 2020
Orbit: 547 x 549 km, 53.0° (Epoch: 03 July)

Event Time Altitude Azimuth Distance (km) Brightness Sun altitude
Exits shadow 00:12:43 39° 221° (SW) 829 4.0 -17.5°
Maximum altitude 00:14:11 89° 138° (SE) 549 3.5 -17.2°
Drops below altitude 10° 00:18:19 10° 43° (NE) 1,815 7.6 -16.6°
Sets 00:20:33 0° 43° (NE) 2,711 8.9 -16.2°
